Location: Ripley
(48.3812°N, 115.4473°W)
Time: 06:01:59
(UTC+00:00)

X-37B - Visible Passes

Search period start: 25 January 2022 00:00
Search period end: 04 February 2022 00:00
Orbit: 334 x 337 km, 45.0° (Epoch: 11 January)

Date Brightness Start Highest point End Pass type
(mag) Time Alt. Az. Time Alt. Az. Time Alt. Az.
27 Jan 3.1 02:27:07 10° S 02:27:26 11° S 02:27:26 11° S visible
28 Jan 3.0 02:46:24 10° SW 02:47:10 15° SSW 02:47:10 15° SSW visible
29 Jan 2.8 01:32:34 10° S 01:34:02 13° SSE 01:35:28 10° ESE visible
29 Jan 3.4 03:06:22 10° WSW 03:06:51 14° SW 03:06:51 14° SW visible
30 Jan 2.0 01:51:51 10° SW 01:54:10 23° SSE 01:55:16 18° SE visible
31 Jan 1.3 02:11:48 10° WSW 02:14:26 34° S 02:14:53 32° SSE visible
01 Feb 1.3 02:32:02 10° WSW 02:34:28 40° SSW 02:34:28 40° SSW visible
02 Feb 1.5 01:17:14 10° SW 01:19:51 34° S 01:22:28 10° ESE visible
02 Feb 2.3 02:52:23 10° WSW 02:54:05 27° SW 02:54:05 27° SW visible
03 Feb 1.2 01:37:28 10° WSW 01:40:10 41° S 01:42:28 13° ESE visible
03 Feb 3.3 03:12:50 10° WSW 03:13:42 16° WSW 03:13:42 16° WSW visible
